Вернуться в каталог

ONEWEB-0010

АктивенСвязьPO
NORAD 44058·PAYLOAD·🇬🇧 United Kingdom

Запущен Feb 27, 2019 с Guiana Space Centre

Loading…

Ближайшие Пролёты (ближайшие 24 часа)

TLE

СвежийSource: CelesTrak SupGP

Эпоха: Sep 14, 2026, 23:27 UTC

1 44058C 19010B   26257.97727266 -.00002998  00000+0 -78534-2 0  2575
2 44058  87.9147 210.9528 0001959  72.0582  33.9639 13.16594303    13

Отслеживайте ONEWEB-0010 в реальном времени с AllMySat

Download on the App Store